{"data":{"norad_id":68403,"intl_designator":"2026-063Z","name":"STARLINK-37218","alt_names":[],"object_type":"PAYLOAD","status":"ACTIVE","operator":null,"country":"US","launch_date":"2026-03-26","launch_site_code":"AFWTR","launch_vehicle":null,"mission":null,"orbit_class":"UNKNOWN","rcs_meters":null,"size_class":null,"mass_kg":null,"dimensions":null,"purposes":["comms"],"wikipedia_slug":null,"has_3d_model":false,"image_url":null,"decayed_at":null,"tle_current":{"epoch":"2026-05-24T22:59:27.127104Z","epoch_age_seconds":78083,"freshness":"FRESH","line1":"1 68403U 26063Z   26144.95795286  .00194687  00000+0  12766-2 0  9994","line2":"2 68403  97.2854 288.5959 0000952  62.5994 297.5368 15.75189772  9657","mean_motion":15.75189772,"eccentricity":9.52e-5,"inclination_deg":97.2854,"raan_deg":288.5959,"arg_perigee_deg":62.5994,"mean_anomaly_deg":297.5368,"bstar":0.0012766,"rev_number":965,"period_min":91.417556512676,"perigee_km":343.45126122953,"apogee_km":344.73117348211,"semimajor_km":6722.2282173558,"source":"CELESTRAK","updated_at":"2026-05-25T13:38:21.951643Z"}}}